User: anonymous   Login
Location: Dentlein
(49.1477°N, 10.4231°E)
Time: 19:44:26
(UTC+00:00)
Language:

Geosat - Orbit

View from above orbital plane
View from above orbital plane
View from above satellite
View from above satellite

Ground track
Ground track

The orbit data is extracted from the following two-line orbital elements,

1 15595U 85021A   24207.28359863  .00000453  00000-0  19018-3 0  9994
2 15595 108.0580  81.6745 0001756 253.4236 106.6713 14.39069133 63196
Epoch (UTC): 25 July 2024 06:48:22
Eccentricity: 0.0001756
inclination: 108.0580°
perigee height: 760 km
apogee height: 763 km
right ascension of ascending node: 81.6745°
argument of perigee: 253.4236°
revolutions per day: 14.39069133
mean anomaly at epoch: 106.6713°
orbit number at epoch: 6319

The dashed part of the orbit path shows where the satellite is in the earth's shadow,  

DLR